Regional Weather Roundup
Issued by NWS State College, PA

Home | Current Version | Previous Version | Text Only | Print | Product List | Glossary On
Versions: 1 2 3 4 5 6 7 8 9 10 11 12 13 14 15 16 17 18 19 20 21 22 23 24 25 26 27 28 29 30 31 32 33 34 35 36 37 38 39 40 41 42 43 44 45 46 47 48 49 50
000
ASUS41 KCTP 040610
RWRCTP

REGIONAL WEATHER ROUNDUP
NATIONAL WEATHER SERVICE STATE COLLEGE PA
200 AM EDT WED MAY 04 2016

Note: "fair" indicates few or no clouds below 12,000 feet with no
significant weather and/or obstructions to visibility.

* = STATION THAT DOES NOT REPORT PRECIPITATION /E.G. RAIN...SNOW...ETC/
    THUNDER OR FOG.

PAZ002>004-007>009-013>016-020>023-029>032-040700-
WESTERN PENNSYLVANIA

CITY           SKY/WX    TMP DP  RH WIND       PRES   REMARKS
ERIE           CLEAR     43  38  82 S3        29.77F
MEADVILLE      CLEAR     41  39  93 CALM      29.77F
FRANKLIN*      CLEAR     39  36  87 N3        29.79F
NEW CASTLE     FAIR      44  40  85 CALM      29.79F
BEAVER COUNTY  NOT AVBL
BUTLER*        CLOUDY    48  39  71 CALM      29.80F
PITTSBURGH INT LGT RAIN  54  40  59 CALM      29.77F
PITTSBURGH     CLOUDY    53  40  61 CALM      29.76F
INDIANA*       MOCLDY    46  45  93 CALM      29.80S
LATROBE        CLOUDY    50  50 100 S5        29.77F
WASHINGTON CO* CLOUDY    52  43  71 NW5       29.79F
$$

PAZ004>006-010>012-017>019-024>028-033>037-041-042-045-046-049>053-040700-
CENTRAL PENNSYLVANIA

CITY           SKY/WX    TMP DP  RH WIND       PRES   REMARKS
BRADFORD       FOG       36  33  89 CALM      29.76F VSB 3/4
DUBOIS         CLOUDY    45  41  86 CALM      29.75F
CLEARFIELD     CLEAR     45  41  86 N6        29.77F
JOHNSTOWN      CLEAR     48  39  71 SW5       29.76F
ALTOONA        CLOUDY    52  44  74 CALM      29.77F
STATE COLLEGE  CLOUDY    50  48  93 NE5       29.77S
WILLIAMSPORT   CLOUDY    52  47  83 E3        29.77F
SELINSGROVE    LGT RAIN  53  51  93 CALM      29.78F FOG
FT INDIANTOWN  LGT RAIN  54  54 100 CALM      29.77F FOG
CAPITAL CITY   LGT RAIN  56  52  86 E8        29.77F FOG
HARRISBURG     LGT RAIN  55  52  89 SE6       29.76F FOG
YORK           HVY RAIN  54  52  93 SE6       29.77F FOG
$$

PAZ038>040-043-044-047-048-054-055-060>062-067>071-040700-
EASTERN PENNSYLVANIA

CITY           SKY/WX    TMP DP  RH WIND       PRES   REMARKS
SCRANTON       CLOUDY    50  49  96 CALM      29.78F FOG
MOUNT POCONO   FOG       47  45  93 SE3       29.78F VSB 1/4
ALLENTOWN      CLOUDY    53  50  89 SE6       29.79F
QUAKERTOWN*    CLOUDY    50  50 100 SE6       29.80F
READING        CLOUDY    53  49  86 SE10      29.78F
LANCASTER      LGT RAIN  53  52  96 SE3       29.78F FOG
COATESVILLE    CLOUDY    52  52 100 MISG      29.80S
POTTSTOWN      CLOUDY    51  49  92 E3        29.80F
BLUE BELL      CLOUDY    48  46  93 E3        29.79F
DOYLESTOWN     CLOUDY    48  48 100 CALM      29.79F
WILLOW GROVE   NOT AVBL
NORTH PHILA    CLOUDY    52  48  86 E5        29.82F
PHILADELPHIA   CLOUDY    52  47  83 E8        29.80F
$$



USA.gov is the U.S. government's official web portal to all federal, state and local government web resources and services.